Timeline UpdatesTrip UpdatesNews PostsPvt PostsTravel TipsAdmin PostsConv PostsFollowed PostsChat RequestsBlog PostsPNR Posts

Disclaimer
Search
 
 
Wed Jul 23, 2014 09:13:02 ISTHomeTrainsΣChainsAtlasPNRForumGalleryNewsFAQTripsMembersLoginFeedback
No Recent News for this Train
Other Trains in the News **new
Latest...
⇐ Return Journey: Train# 18236

18235/Bhopal Bilaspur Express

Oct 02 2013 (5:25PM)
Change Departure Station:
Change Arrival Station:
Post a Train Travel TipPost a Train Travel Tip **new
Post a Comment/Question/Picture/VideoPost a Comment/Question/Picture/Video
Pantry/Catering
???
RSA - Rake Sharing
Rake/Coach Composition
.LOCO- GEN GEN GEN GEN FC1 S1 S2 S3 GEN GS GEN SLR SL(slip).; Entry# 311744.; Author: Shubham.
Loco
Loco In-Charge :- BIA WAM-4
News    PNR    Forum    Time-Table    Availability    Fare Chart    Map    Arr/Dep History    Trips    Gallery    ΣChains    X/O    Timeline    
Travel Time: 19h 22m    64 halts    Distance: 692 km    Avg Speed: 35 km/hr
Type: Mail/Express
Zone: SECR/South East Central
Departs @ 08:23 (Avg 18m late)
Platform# 1
SMTWTFS
DewanGanj/DWG 
Arrives @ 03:45 +1 night (Avg 5m late)
Platform# 7
SMTWTFS
Bilaspur Junction/BSP 

64 halts. 84 intermediate Stations between DewanGanj and Bilaspur Junction

Show ALL intermediate Stations  Show Old Time-Table

#CodeStation NameX/OArrivesAvgDepartsAvgHaltPFDay#KmSpeedElevZoneAddress
1BPLBhopal Junction (6)  -08:00+251-27.679497mWCRBhopal, Madhya Pradesh
2DWG»DewanGanj (3)»X  08:21+1608:23+182m110.062444mWCRRaisen, Madhya Pradesh
3SMTSalamatpur (3)X  08:32+1908:34+192m--19.349437mWCRRaisen, Madhya Pradesh
4SCISanchi (2)X  08:43+1808:45+202m2116.651428mWCRRaisen, Madhya Pradesh
5BHSVidisha (3)XO  08:56+1708:58+192m1126.084432mWCRVidisha, Madhya Pradesh
6GLGGulabhGanj (3)X  09:13+2909:15+302m1147.069432mWCRVidisha, Madhya Pradesh
7BAQGanj Basoda (4)  09:31+2409:33+252m1165.369416mWCRVidisha, Madhya Pradesh
8KAHKalhar (3)  09:50+4809:52+482m--185.053409mWCRSagar, Madhya Pradesh
9MABAMandi Bamora (3)X  10:02+3010:04+302m1193.829413mWCRState Highway 14, Madhya Pradesh
10BINABina Junction (4)X  10:40+1110:50+1010m31111.027414mWCRJn Pt - KATNI/GUNA/ BPL/JHS, Madhya Pradesh
11BJQBaghora (2)  11:12+3211:14+342m21121.159420mWCRSagar, Madhya Pradesh
12KYEKhurai (5)X  11:26+3211:28+342m--1132.959439mWCRKhurai, Madhya Pradesh
13SMRRSumreriXO  11:37+3611:39+372m--1141.739443mWCRKhurai, Madhya Pradesh
14JRKJeruwa Khera  11:53+3411:55+362m--1150.850498mWCRJeruwakhera, Madhya Pradesh
15ISHIsarwara  12:06+3612:08+372m--1159.937487mWCRSagar, Madhya Pradesh
16NOINariaoliX  12:20+3412:22+352m--1167.439485mWCRSagar, Madhya Pradesh
17SGOSaugor (2)  12:50+2813:00+2810m--1185.724519mWCRMP 470001Madhya pradesh, Madhya Pradesh
18MKRNMakronia  13:18+2613:20+342m--1192.872527mWCRRajakhedi, Madhya Pradesh
19LDALidhora Khurd  13:26+3813:28+392m--1200.067496mWCRSagar, Madhya Pradesh
20GWGirwar  13:37+4013:42+385m--1210.064472mWCRSagar, Madhya Pradesh
21GAJGaneshGanjXO  13:55+4114:00+415m--1223.839419mWCRPatharia, Madhya Pradesh
22PHAPathariaX  14:20+3614:25+355m--1236.736382mWCRState Highway 14, Madhya Pradesh
23ANAAslanaXO  14:48+3014:50+352m--1250.521367mWCRDamoh, Madhya Pradesh
24DMODamoh (2)  15:25+2015:35+1910m--1262.861365mWCRDamoh, Madhya Pradesh
25KYXKarhiya BhadeliX  15:43+2315:45+232m--1270.933365mWCRGhatera, Madhya Pradesh
26BNUBandakpur  15:58+1816:00+192m--1278.264352mWCRBandakpur Rd, Madhya Pradesh
27GEAGhatera  16:10+2016:15+185m--1288.854332mWCRBandakpur Rd, Madhya Pradesh
28SAOSagoni  16:33+1716:35+192m--1305.032358mWCRGhatera, Madhya Pradesh
29SYASalaia  17:09+1117:11+132m--1323.152438mWCRGhatera, Madhya Pradesh
30BQQBakhleta  17:23+1117:25+112m--1333.539429mWCRKatni, Madhya Pradesh
31REIRithi  17:38+817:40+82m--1341.955427mWCRKatni, Madhya Pradesh
32HDUHardua  17:56+517:58+62m--1356.642394mWCRKatni, Madhya Pradesh
33KMZKatni Murwara  18:20+418:40+220m--1371.922385mWCRMP 483504 ?, Madhya Pradesh
34JLWJhalwara  19:09+1019:11+102m--1382.770406mSECRNational Highway 78, Madhya Pradesh
35RPDRupaund  19:21+1119:23+112m--1394.435417mSECRJhalwara, Madhya Pradesh
36VYKVilayatkalan RoadX  19:31+1119:33+112m--1399.195425mSECRJhalwara, Madhya Pradesh
37CHDChandia Road (1)  19:41+1219:43+122m11411.859406mSECRNational Highway 78, Madhya Pradesh
38LOALorha  19:52+1219:54+122m--1420.655464mSECRUmaria, Madhya Pradesh
39UMRUmaria (3)  20:05+1020:10+115m--1430.895469mSECRUmaria, Madhya Pradesh
40KKIKarkeliX  20:18+1620:20+172m--1443.460471mSECRUmaria, Madhya Pradesh
41NRZBNowrozabad  20:30+1720:32+172m--1453.462458mSECRNational Highway 78, Madhya Pradesh
42BRSBirsinghpurX  20:39+1720:41+172m--1460.670461mSECRPali, Madhya Pradesh
43GGTGhunghuti  20:55+2120:57+212m--1476.969522mSECRNational Highway 78, Madhya Pradesh
44BDWABandhwa ParaX  21:08+2221:10+232m--1489.417474mSECRNational Highway 78, Madhya Pradesh
45SDLShahdol  21:40+821:50+1010m--1498.059466mSECR, Madhya Pradesh
46SNGPSinghpur  21:56+1421:58+142m--1503.968502mSECRBurhar, Madhya Pradesh
47BUHBurhar  22:10+1422:12+142m--1517.565494mSECRBurhar, Madhya Pradesh
48AALAmlaiX  22:20+1522:22+152m--1526.242495mSECRAnuppur, Madhya Pradesh
49APRAnuppur Junction (3)  22:40+923:05+1425m--1538.977487mSECRAnuppur, Madhya Pradesh
50CLFChhulhaX  23:09+2623:11+362m--1544.075488mSECRMauhari, Madhya Pradesh
51JTIJaithariX  23:18+3823:20+462m--1552.880522mSECRAnuppur, Madhya Pradesh
52NIQNigaura  23:28+4823:30+562m--1563.457547mSECRAnuppur, Madhya Pradesh
53VKRVenkatnagar  23:38+5723:40+1:042m--1571.049549mSECRPendra Rd, Madhya Pradesh
54HRBHarri  23:53+1:0323:55+1:082m--1581.625595mSECRVenkatnagar, Madhya Pradesh
55PNDPendra RoadX  00:15+5300:25+5210m--2590.076620mSECRBilaspur district, Chhattisgarh
56SBRASarbahara  00:29+1:0000:31+1:042m--2595.155589mSECRBilaspur, Chhattisgarh
57KOIKhodriX  00:38+1:0600:40+1:072m--2601.538558mSECRBilaspur, Chhattisgarh
58BHTKBhanwar TonkX  00:58+1:0500:59+1:061m--2613.044455mSECRKhodri, Chhattisgarh
59KGSKhongsara  01:16+1:0501:18+1:062m--2625.564378mSECRBhanwar, Chhattisgarh
60TGQTenganmada  01:26+1:0701:28+1:072m--2634.074367mSECRBelgahna, Chhattisgarh
61BIGBelgahna  01:36+1:0701:38+1:072m--2643.865327mSECRBilaspur, Chhattisgarh
62SLKRSalkaroad  01:45+1:0801:47+1:072m--2651.470333mSECRGhutku, Chhattisgarh
63KGBKargi Road  01:54+1:0701:56+1:072m--2659.520327mSECRBilaspur, Chhattisgarh
64KLTRKalmitarX  02:20+5102:22+502m--2667.425300mSECRUsalapur, Chhattisgarh
65GTKGhutku  02:41+3802:43+392m--2675.421288mSECRBilaspur, Chhattisgarh
66USLUslapur (3)  03:05+2503:07+262m--2683.014272mSECRBilaspur, Chhattisgarh
67BSP•Bilaspur Junction (8)•  03:45+5-72691.6-271mSECRBilaspur, Chhattisgarh
Scroll to Top
Scroll to Bottom